• In Belarus
  • List of Countries
  • For 7 days
  • Water Temperature
  • Satellite Maps
  • Weather Map
  • Weather Widgets
  • user-avatar
    Login

    Hourly Weather Tiwi

    Today, 18 July, Wednesday

    Time Temperature Precipitation Wind Pressure Humidity
    00:00 +36°C° 0 mm 3 mps 739 mmHg 60%
    01:00 +36°C° 0 mm 3 mps 739 mmHg 62%
    02:00 +35°C° 0 mm 3 mps 739 mmHg 60%
    03:00 +35°C° 0 mm 3 mps 739 mmHg 58%
    04:00 +34°C° 0 mm 4 mps 739 mmHg 57%
    05:00 +35°C° 0 mm 4 mps 740 mmHg 51%
    06:00 +36°C° 0 mm 4 mps 740 mmHg 46%
    07:00 +36°C° 0 mm 4 mps 740 mmHg 41%
    08:00 +38°C° 0 mm 4 mps 741 mmHg 34%
    09:00 +41°C° 0 mm 4 mps 741 mmHg 28%
    10:00 +41°C° 0 mm 4 mps 741 mmHg 30%
    11:00 +43°C° 0 mm 4 mps 741 mmHg 27%
    12:00 +44°C° 0 mm 4 mps 741 mmHg 24%
    13:00 +45°C° 0 mm 4 mps 741 mmHg 20%
    14:00 +45°C° 0 mm 4 mps 740 mmHg 21%
    15:00 +45°C° 0 mm 3 mps 740 mmHg 21%
    16:00 +45°C° 0 mm 3 mps 740 mmHg 21%
    17:00 +44°C° 0 mm 3 mps 740 mmHg 25%
    18:00 +42°C° 0 mm 3 mps 740 mmHg 29%
    19:00 +40°C° 0 mm 3 mps 740 mmHg 33%
    20:00 +39°C° 0 mm 3 mps 740 mmHg 40%
    21:00 +38°C° 0 mm 3 mps 740 mmHg 46%
    22:00 +37°C° 0 mm 3 mps 741 mmHg 52%
    23:00 +36°C° 0 mm 3 mps 741 mmHg 53%

    Tomorrow, 19 July, Thursday

    Time Temperature Precipitation Wind Pressure Humidity
    00:00 +36°C° 0 mm 3 mps 741 mmHg 55%
    01:00 +36°C° 0 mm 3 mps 741 mmHg 56%
    02:00 +35°C° 0 mm 2 mps 741 mmHg 56%
    03:00 +35°C° 0 mm 2 mps 741 mmHg 56%
    04:00 +34°C° 0 mm 2 mps 741 mmHg 56%
    05:00 +35°C° 0 mm 2 mps 741 mmHg 55%
    06:00 +35°C° 0 mm 2 mps 741 mmHg 54%
    07:00 +36°C° 0 mm 2 mps 741 mmHg 53%
    08:00 +37°C° 0 mm 2 mps 741 mmHg 46%
    09:00 +39°C° 0 mm 2 mps 742 mmHg 40%
    10:00 +40°C° 0 mm 2 mps 742 mmHg 33%
    11:00 +43°C° 0 mm 3 mps 741 mmHg 30%
    12:00 +44°C° 0 mm 3 mps 741 mmHg 27%
    13:00 +45°C° 0 mm 3 mps 741 mmHg 23%
    14:00 +45°C° 0 mm 3 mps 740 mmHg 23%
    15:00 +45°C° 0 mm 3 mps 740 mmHg 24%
    16:00 +45°C° 0 mm 3 mps 740 mmHg 24%
    17:00 +43°C° 0 mm 3 mps 740 mmHg 27%
    18:00 +42°C° 0 mm 3 mps 740 mmHg 30%
    19:00 +40°C° 0 mm 4 mps 740 mmHg 33%
    20:00 +38°C° 0 mm 4 mps 740 mmHg 37%
    21:00 +37°C° 0 mm 4 mps 740 mmHg 41%
    22:00 +36°C° 0 mm 4 mps 741 mmHg 45%
    23:00 +36°C° 0 mm 4 mps 741 mmHg 46%

    Day after tomorrow, 20 July, Friday

    Time Temperature Precipitation Wind Pressure Humidity
    00:00 +35°C° 0 mm 4 mps 740 mmHg 48%
    01:00 +35°C° 0 mm 4 mps 740 mmHg 49%
    02:00 +34°C° 0 mm 4 mps 740 mmHg 48%
    03:00 +34°C° 0 mm 3 mps 739 mmHg 46%
    04:00 +33°C° 0 mm 3 mps 739 mmHg 44%
    05:00 +34°C° 0 mm 3 mps 739 mmHg 39%
    06:00 +35°C° 0 mm 3 mps 739 mmHg 34%
    07:00 +36°C° 0 mm 3 mps 739 mmHg 28%
    08:00 +38°C° 0 mm 3 mps 740 mmHg 25%
    09:00 +40°C° 0 mm 3 mps 740 mmHg 21%
    10:00 +43°C° 0 mm 4 mps 740 mmHg 17%
    11:00 +44°C° 0 mm 4 mps 740 mmHg 16%
    12:00 +45°C° 0 mm 4 mps 739 mmHg 15%
    13:00 +47°C° 0 mm 5 mps 739 mmHg 15%
    14:00 +47°C° 0 mm 5 mps 739 mmHg 15%
    15:00 +47°C° 0 mm 5 mps 739 mmHg 16%
    16:00 +46°C° 0 mm 5 mps 738 mmHg 16%
    17:00 +45°C° 0 mm 5 mps 738 mmHg 18%
    18:00 +43°C° 0 mm 5 mps 738 mmHg 19%
    19:00 +41°C° 0 mm 5 mps 738 mmHg 20%
    20:00 +40°C° 0 mm 4 mps 739 mmHg 22%
    21:00 +37°C° 0 mm 4 mps 739 mmHg 23%
    22:00 +36°C° 0 mm 3 mps 739 mmHg 24%
    23:00 +36°C° 0 mm 3 mps 739 mmHg 21%

    21 July, Saturday

    Time Temperature Precipitation Wind Pressure Humidity
    00:00 +36°C° 0 mm 3 mps 739 mmHg 18%
    01:00 +35°C° 0 mm 2 mps 739 mmHg 15%
    02:00 +35°C° 0 mm 2 mps 738 mmHg 15%
    03:00 +34°C° 0 mm 2 mps 738 mmHg 15%
    04:00 +34°C° 0 mm 2 mps 738 mmHg 15%
    05:00 +36°C° 0 mm 2 mps 738 mmHg 13%
    06:00 +38°C° 0 mm 2 mps 738 mmHg 10%
    07:00 +40°C° 0 mm 2 mps 738 mmHg 8%
    08:00 +42°C° 0 mm 1 mps 739 mmHg 7%
    09:00 +44°C° 0 mm 1 mps 739 mmHg 6%
    10:00 +46°C° 0 mm 1 mps 739 mmHg 5%
    11:00 +47°C° 0 mm 2 mps 739 mmHg 6%
    12:00 +48°C° 0 mm 3 mps 739 mmHg 7%
    13:00 +50°C° 0 mm 3 mps 739 mmHg 8%
    14:00 +50°C° 0 mm 4 mps 738 mmHg 8%
    15:00 +49°C° 0 mm 4 mps 738 mmHg 9%
    16:00 +49°C° 0 mm 4 mps 738 mmHg 10%
    17:00 +47°C° 0 mm 4 mps 738 mmHg 12%
    18:00 +45°C° 0 mm 4 mps 738 mmHg 14%
    19:00 +43°C° 0 mm 4 mps 738 mmHg 17%
    20:00 +40°C° 0 mm 3 mps 738 mmHg 19%
    21:00 +39°C° 0 mm 3 mps 739 mmHg 21%
    22:00 +37°C° 0 mm 3 mps 739 mmHg 23%
    23:00 +37°C° 0 mm 2 mps 739 mmHg 21%

    22 July, Sunday

    Time Temperature Precipitation Wind Pressure Humidity
    00:00 +36°C° 0 mm 2 mps 738 mmHg 19%
    01:00 +35°C° 0 mm 1 mps 738 mmHg 17%
    02:00 +36°C° 0 mm 2 mps 738 mmHg 18%
    03:00 +35°C° 0 mm 2 mps 738 mmHg 18%
    04:00 +35°C° 0 mm 2 mps 737 mmHg 18%
    05:00 +36°C° 0 mm 2 mps 738 mmHg 16%
    06:00 +38°C° 0 mm 2 mps 738 mmHg 14%
    07:00 +40°C° 0 mm 1 mps 739 mmHg 12%
    08:00 +42°C° 0 mm 1 mps 739 mmHg 11%
    09:00 +45°C° 0 mm 2 mps 739 mmHg 9%
    10:00 +47°C° 0 mm 2 mps 739 mmHg 8%
    11:00 +48°C° 0 mm 2 mps 739 mmHg 8%
    12:00 +50°C° 0 mm 3 mps 738 mmHg 9%
    13:00 +50°C° 0 mm 4 mps 738 mmHg 9%
    14:00 +50°C° 0 mm 4 mps 737 mmHg 12%
    15:00 +49°C° 0 mm 4 mps 737 mmHg 14%
    16:00 +48°C° 0 mm 4 mps 736 mmHg 16%
    17:00 +45°C° 0 mm 3 mps 737 mmHg 19%
    18:00 +44°C° 0 mm 3 mps 737 mmHg 22%
    19:00 +42°C° 0 mm 3 mps 737 mmHg 25%
    20:00 +40°C° 0 mm 3 mps 737 mmHg 26%
    21:00 +39°C° 0 mm 3 mps 737 mmHg 26%
    22:00 +38°C° 0 mm 3 mps 738 mmHg 27%
    23:00 +38°C° 0 mm 3 mps 738 mmHg 30%

    23 July, Monday

    Time Temperature Precipitation Wind Pressure Humidity
    00:00 +37°C° 0 mm 2 mps 737 mmHg 32%
    01:00 +36°C° 0 mm 2 mps 737 mmHg 35%
    02:00 +36°C° 0 mm 2 mps 737 mmHg 40%
    03:00 +35°C° 0 mm 2 mps 737 mmHg 44%
    04:00 +34°C° 0 mm 3 mps 736 mmHg 49%
    05:00 +35°C° 0 mm 2 mps 737 mmHg 45%
    06:00 +36°C° 0 mm 2 mps 737 mmHg 41%
    07:00 +37°C° 0 mm 2 mps 737 mmHg 38%
    08:00 +39°C° 0 mm 3 mps 737 mmHg 33%
    09:00 +42°C° 0 mm 3 mps 737 mmHg 28%
    10:00 +44°C° 0 mm 3 mps 737 mmHg 24%
    11:00 +47°C° 0 mm 4 mps 737 mmHg 22%
    12:00 +48°C° 0 mm 4 mps 737 mmHg 20%
    13:00 +49°C° 0 mm 4 mps 736 mmHg 18%
    14:00 +49°C° 0 mm 4 mps 736 mmHg 19%
    15:00 +48°C° 0 mm 3 mps 735 mmHg 20%
    16:00 +48°C° 0 mm 3 mps 735 mmHg 21%
    17:00 +47°C° 0 mm 3 mps 735 mmHg 26%
    18:00 +45°C° 0 mm 3 mps 735 mmHg 30%
    19:00 +43°C° 0 mm 3 mps 735 mmHg 34%
    20:00 +42°C° 0 mm 3 mps 736 mmHg 40%
    21:00 +39°C° 0 mm 3 mps 736 mmHg 46%
    22:00 +38°C° 0 mm 3 mps 736 mmHg 52%
    23:00 +37°C° 0 mm 3 mps 736 mmHg 55%
    Show more